Latest Weather Observations for Norfolk Island

IDN60801

Issued at 5:35 pm EDT Thursday 23 October 2014 (issued every 30 minutes, with the page automatically refreshed every 10 minutes)

About weather observations | Map of weather stations | Latest weather observations for NSW | Other Formats
Station Details ID: 200288 Name: NORFOLK ISLAND AERO Lat: -29.04 Lon: 167.94 Height: 111.73 m
Data from the previous 72 hours. | See also: Recent months at Norfolk Island
Date/Time
EDT
Temp
°C
App
Temp
°C
Dew
Point
Rel
Hum
%
Delta-T
°C
Wind Press
QNH
hPa
Press
MSL
hPa
Rain
since 9 am
mm
Dir
 
Spd
km/h
Gust
km/h
Spd
kts
Gust
kts
23/05:30pm 17.1 13.3 9.7 61 3.9 S 20 26 11 14 1018.2 - 0.0
23/05:00pm 17.5 14.0 10.2 62 3.9 SSW 19 28 10 15 1017.9 - 0.0
23/04:30pm 18.3 14.8 10.3 59 4.3 S 19 26 10 14 1017.7 - 0.0
23/04:00pm 18.5 15.3 10.1 58 4.5 S 17 26 9 14 1017.6 - 0.0
23/03:30pm 18.3 14.5 9.8 57 4.5 S 20 30 11 16 1017.4 - 0.0
23/03:00pm 18.6 14.6 10.4 59 4.4 S 22 30 12 16 1017.5 - 0.0
23/02:30pm 19.0 15.0 10.3 57 4.7 S 22 30 12 16 1017.5 1017.2 0.0
23/02:00pm 18.2 14.6 10.6 61 4.1 S 20 30 11 16 1017.8 - 0.0
23/01:30pm 18.4 14.8 10.6 60 4.2 S 20 28 11 15 1017.9 - 0.0
23/01:00pm 18.8 14.5 10.7 59 4.4 SSW 24 32 13 17 1018.1 - 0.0
23/12:30pm 19.0 15.1 10.9 59 4.4 S 22 32 12 17 1018.3 - 0.0
23/12:00pm 19.1 15.5 10.6 58 4.6 S 20 30 11 16 1018.5 - 0.0
23/11:30am 18.9 14.6 10.8 59 4.4 SSW 24 26 13 14 1018.5 1018.3 0.0
23/11:00am 19.6 16.1 12.1 62 4.2 S 22 33 12 18 1018.6 - 0.0
23/10:30am 18.6 14.1 10.2 58 4.5 SSW 24 33 13 18 1018.7 - 0.0
23/10:00am 18.8 14.9 10.7 59 4.4 SSW 22 32 12 17 1018.9 - 0.0
23/09:30am 18.3 14.6 10.1 59 4.4 SSW 20 30 11 16 1018.8 - 0.0
23/09:00am 18.8 15.3 10.9 60 4.3 S 20 28 11 15 1018.9 - 0.0
23/08:30am 17.6 14.4 11.4 67 3.4 SW 19 28 10 15 1018.8 1018.6 0.2
23/08:00am 18.3 15.2 11.6 65 3.7 SSW 19 26 10 14 1018.9 - 0.2
23/07:30am 17.7 15.2 11.1 65 3.6 SSW 15 24 8 13 1018.8 - 0.2
23/07:00am 17.1 13.6 10.1 63 3.7 SSW 19 28 10 15 1018.6 - 0.2
23/06:30am 16.2 13.0 9.9 66 3.3 SSW 17 22 9 12 1018.5 - 0.2
23/06:00am 16.0 13.5 12.2 78 2.1 SW 17 22 9 12 1018.4 - 0.2
23/05:30am 15.5 12.6 11.0 74 2.4 SW 17 26 9 14 1018.3 1018.1 0.2
23/05:00am 15.6 13.0 10.7 72 2.6 SSW 15 19 8 10 1017.9 - 0.2
23/04:30am 15.7 13.2 11.0 73 2.5 SW 15 24 8 13 1018.0 - 0.2
23/04:00am 15.5 13.0 11.2 75 2.3 SW 15 26 8 14 1017.9 - 0.2
23/03:30am 15.8 13.4 11.4 75 2.4 SW 15 19 8 10 1017.9 - 0.2
23/03:00am 15.6 13.5 11.1 74 2.4 SW 13 19 7 10 1018.1 - 0.2
23/02:30am 15.4 13.7 11.1 75 2.3 SW 11 17 6 9 1018.1 1017.9 0.2
23/02:00am 14.6 13.1 10.4 76 2.2 WSW 9 13 5 7 1018.3 - 0.2
23/01:30am 14.8 13.0 10.8 77 2.1 WSW 11 13 6 7 1018.6 - 0.2
23/01:00am 15.3 14.1 11.6 78 2.0 W 9 13 5 7 1018.9 - 0.2
23/12:30am 15.6 13.5 11.1 74 2.4 SSW 13 19 7 10 1019.1 - 0.2
23/12:00am 15.7 13.7 11.4 75 2.3 SW 13 19 7 10 1019.1 - 0.2
 
Date/Time
EDT
Temp
°C
App
Temp
°C
Dew
Point
Rel
Hum
%
Delta-T
°C
Wind Press
QNH
hPa
Press
MSL
hPa
Rain
since 9 am
mm
Dir
 
Spd
km/h
Gust
km/h
Spd
kts
Gust
kts
22/11:30pm 14.6 12.9 11.2 80 1.8 WSW 11 11 6 6 1019.2 1019.0 0.2
22/11:00pm 14.7 13.0 11.1 79 1.9 SW 11 13 6 7 1019.5 - 0.2
22/10:30pm 15.3 14.3 11.0 75 2.3 S 7 9 4 5 1019.5 - 0.2
22/10:00pm 15.4 14.4 11.1 75 2.3 S 7 9 4 5 1019.7 - 0.2
22/09:30pm 15.3 13.9 11.0 75 2.3 S 9 13 5 7 1019.7 - 0.2
22/09:00pm 15.7 13.3 10.0 69 3.0 SSW 13 15 7 8 1019.9 - 0.2
22/08:30pm 16.0 13.6 10.1 68 3.1 SSW 13 17 7 9 1019.7 1019.5 0.2
22/08:00pm 15.9 14.0 10.6 71 2.8 SSW 11 15 6 8 1019.6 - 0.2
22/07:30pm 15.8 13.8 10.3 70 2.9 S 11 15 6 8 1019.4 - 0.2
22/07:00pm 15.6 14.0 10.3 70 2.8 SSW 9 11 5 6 1019.3 - 0.2
22/06:30pm 15.5 13.7 11.0 74 2.4 S 11 15 6 8 1019.1 - 0.2
22/06:00pm 15.7 13.6 9.8 68 3.1 S 11 15 6 8 1018.9 - 0.2
22/05:30pm 16.1 13.4 9.1 63 3.6 S 13 19 7 10 1018.8 1018.6 0.2
22/05:00pm 16.7 13.3 9.2 61 3.9 S 17 20 9 11 1018.5 - 0.2
22/04:30pm 17.2 13.9 9.4 60 4.1 S 17 26 9 14 1018.4 - 0.2
22/04:00pm 17.4 13.5 9.6 60 4.1 S 20 28 11 15 1018.2 - 0.2
22/03:30pm 18.0 14.7 9.7 58 4.4 SSW 17 24 9 13 1018.2 - 0.2
22/03:00pm 16.9 13.6 9.4 61 3.9 SSW 17 26 9 14 1018.4 - 0.2
22/02:30pm 17.8 14.1 9.4 58 4.4 SSW 19 28 10 15 1018.5 1018.3 0.2
22/02:00pm 18.4 14.7 10.2 59 4.4 S 20 26 11 14 1018.7 - 0.2
22/01:30pm 18.4 14.7 9.3 55 4.8 S 19 24 10 13 1019.1 - 0.2
22/01:00pm 18.0 14.2 9.2 56 4.6 S 19 28 10 15 1019.5 - 0.2
22/12:30pm 18.2 14.4 9.0 55 4.8 S 19 28 10 15 1019.7 - 0.2
22/12:00pm 17.7 14.1 9.8 60 4.2 SSE 19 26 10 14 1019.8 - 0.2
22/11:30am 18.1 14.5 10.7 62 4.0 SSE 20 28 11 15 1019.9 1019.7 0.2
22/11:00am 17.6 14.0 10.5 63 3.8 SSE 20 28 11 15 1019.9 - 0.2
22/10:30am 17.8 14.8 10.7 63 3.8 SSE 17 26 9 14 1020.2 - 0.2
22/10:00am 17.7 14.5 9.8 60 4.2 S 17 26 9 14 1020.4 - 0.0
22/09:30am 17.7 13.9 9.1 57 4.5 S 19 26 10 14 1020.5 - 0.0
22/09:00am 17.3 13.3 9.0 58 4.3 S 20 30 11 16 1020.5 - 0.0
22/08:30am 17.1 13.2 8.5 57 4.4 S 19 26 10 14 1020.4 1020.2 3.2
22/08:00am 16.5 13.5 10.5 67 3.2 SSE 17 28 9 15 1020.5 - 3.2
22/07:30am 15.8 12.2 10.7 71 2.7 S 20 30 11 16 1020.4 - 3.2
22/07:00am 16.1 12.2 8.5 60 3.9 S 19 28 10 15 1020.1 - 3.2
22/06:30am 15.6 11.6 8.1 61 3.8 S 19 28 10 15 1020.2 - 3.2
22/06:00am 15.4 11.4 8.1 61 3.7 S 19 28 10 15 1020.2 - 3.2
22/05:30am 15.2 11.2 9.0 66 3.2 S 20 28 11 15 1020.1 1019.9 3.2
22/05:00am 14.8 11.2 10.6 76 2.2 SSE 20 32 11 17 1020.0 - 3.2
22/04:30am 14.9 11.2 10.1 73 2.5 SSE 20 28 11 15 1019.8 - 3.2
22/04:00am 14.7 11.7 10.5 76 2.2 SSE 17 28 9 15 1019.9 - 3.2
22/03:30am 14.5 11.1 10.5 77 2.1 SE 19 28 10 15 1020.0 - 3.2
22/03:00am 14.5 11.9 10.7 78 2.0 SE 15 22 8 12 1020.1 - 3.2
22/02:34am 14.4 11.9 12.2 87 1.2 SSE 17 24 9 13 1020.3 - 3.2
22/02:30am 14.5 12.3 12.1 85 1.3 SSE 15 22 8 12 1020.3 1020.1 3.2
22/02:00am 14.1 12.3 13.2 94 0.5 S 15 22 8 12 1020.5 - 3.2
22/01:59am 14.1 11.9 13.2 94 0.5 S 17 24 9 13 1020.5 - 3.2
22/01:30am 14.1 11.4 13.4 96 0.4 S 20 28 11 15 1020.8 - 3.0
22/01:19am 14.3 11.6 13.4 94 0.5 S 20 28 11 15 1020.9 - 2.6
22/01:00am 14.8 12.7 13.7 93 0.6 SSE 17 24 9 13 1021.0 - 2.6
22/12:53am 14.7 12.2 13.6 93 0.6 SSE 19 24 10 13 1021.1 - 2.6
22/12:30am 14.6 12.9 13.7 94 0.5 S 15 20 8 11 1021.4 - 2.4
22/12:01am 15.1 12.8 14.0 93 0.6 SSW 19 22 10 12 1021.6 - 0.4
22/12:00am 15.3 12.9 13.9 91 0.8 SSW 19 22 10 12 1021.6 - 0.2
 
Date/Time
EDT
Temp
°C
App
Temp
°C
Dew
Point
Rel
Hum
%
Delta-T
°C
Wind Press
QNH
hPa
Press
MSL
hPa
Rain
since 9 am
mm
Dir
 
Spd
km/h
Gust
km/h
Spd
kts
Gust
kts
21/11:30pm 15.7 13.6 13.6 87 1.2 SSE 17 24 9 13 1021.7 1021.5 0.0
21/11:00pm 15.9 14.2 13.6 86 1.3 S 15 24 8 13 1021.8 - 0.0
21/10:34pm 16.2 16.0 13.5 84 1.5 SSE 7 11 4 6 1022.1 - 0.0
21/10:30pm 16.2 16.1 13.9 86 1.3 SSE 7 13 4 7 1022.1 - 0.0
21/10:00pm 16.1 14.4 11.3 73 2.6 SW 11 15 6 8 1022.0 - 0.0
21/09:30pm 16.0 14.3 11.2 73 2.6 SSW 11 13 6 7 1022.2 - 0.0
21/09:00pm 15.8 14.3 10.7 71 2.7 SW 9 15 5 8 1022.2 - 0.0
21/08:30pm 14.9 13.4 10.7 76 2.2 SW 9 11 5 6 1022.3 1022.1 0.0
21/08:00pm 15.3 13.8 10.6 73 2.5 SW 9 11 5 6 1022.2 - 0.0
21/07:30pm 15.8 13.4 10.1 69 3.0 SSW 13 17 7 9 1022.0 - 0.0
21/07:00pm 15.7 13.7 10.0 69 3.0 SSW 11 17 6 9 1021.9 - 0.0
21/06:30pm 15.8 13.7 9.7 67 3.2 SSW 11 17 6 9 1021.8 - 0.0
21/06:00pm 15.9 13.7 9.3 65 3.4 S 11 17 6 9 1021.5 - 0.0
21/05:30pm 16.5 13.9 9.2 62 3.8 S 13 19 7 10 1021.3 1021.1 0.0
21/05:00pm 17.4 13.6 9.1 58 4.3 S 19 22 10 12 1021.1 - 0.0
21/04:30pm 17.8 14.4 9.2 57 4.5 SSW 17 22 9 12 1020.9 - 0.0
21/04:00pm 17.9 14.1 9.1 56 4.6 SSW 19 26 10 14 1020.8 - 0.0
21/03:30pm 18.1 14.3 8.9 55 4.8 SSW 19 28 10 15 1020.7 - 0.0
21/03:00pm 18.5 14.7 9.2 54 4.9 S 19 28 10 15 1020.9 - 0.0
21/02:30pm 18.9 14.9 9.2 53 5.1 SW 20 32 11 17 1021.0 1020.8 0.0
21/02:00pm 18.5 15.0 8.9 53 5.0 SW 17 24 9 13 1021.3 - 0.0
21/01:30pm 18.5 14.9 8.2 51 5.3 SW 17 24 9 13 1021.4 - 0.0
21/01:00pm 18.4 15.0 7.6 49 5.5 SSW 15 24 8 13 1021.7 - 0.0
21/12:30pm 18.6 15.3 7.9 49 5.5 SSW 15 20 8 11 1022.2 - 0.0
21/12:00pm 18.7 14.8 7.2 47 5.8 SSW 17 26 9 14 1022.5 - 0.0
21/11:30am 18.9 15.0 7.3 47 5.9 S 17 22 9 12 1022.6 1022.4 0.0
21/11:00am 18.6 14.4 7.3 47 5.7 SSW 19 26 10 14 1023.1 - 0.0
21/10:30am 18.4 14.5 7.3 48 5.6 S 17 26 9 14 1022.9 - 0.0
21/10:00am 17.8 14.0 7.5 51 5.2 S 17 22 9 12 1023.2 - 0.0
21/09:30am 17.2 13.4 7.7 53 4.8 SSW 17 26 9 14 1023.2 - 0.0
21/09:00am 17.1 13.5 8.3 56 4.5 SSW 17 26 9 14 1023.1 - 0.0
21/08:30am 17.2 14.0 7.0 51 5.1 SSW 13 19 7 10 1022.9 1022.7 0.0
21/08:00am 17.3 12.9 6.6 49 5.3 SSW 19 26 10 14 1022.7 - 0.0
21/07:30am 16.7 13.4 6.3 50 5.1 SSW 13 19 7 10 1022.8 - 0.0
21/07:00am 16.6 14.1 6.7 52 4.9 S 9 13 5 7 1022.8 - 0.0
21/06:30am 16.3 13.4 6.5 52 4.8 S 11 15 6 8 1022.5 - 0.0
21/06:00am 16.0 13.0 6.1 52 4.8 SSW 11 17 6 9 1022.3 - 0.0
21/05:30am 15.5 13.7 7.2 57 4.1 SSW 6 9 3 5 1021.9 1021.7 0.0
21/05:00am 15.5 13.0 6.5 55 4.4 S 9 13 5 7 1021.7 - 0.0
21/04:30am 15.1 12.7 7.0 58 4.0 E 9 15 5 8 1021.4 - 0.0
21/04:00am 15.6 12.8 5.3 50 4.9 SSE 9 17 5 9 1021.5 - 0.0
21/03:30am 14.6 12.0 6.1 56 4.1 SSE 9 11 5 6 1021.4 - 0.0
21/03:00am 14.6 14.3 8.5 67 3.1 CALM 0 6 0 3 1021.5 - 0.0
21/02:30am 14.5 14.2 8.8 68 2.9 CALM 0 0 0 0 1021.7 1021.5 0.0
21/02:00am 14.9 14.1 6.4 57 4.1 CALM 0 0 0 0 1022.1 - 0.0
21/01:30am 14.6 14.4 8.9 68 2.9 CALM 0 0 0 0 1022.4 - 0.0
21/01:00am 15.1 13.2 6.9 58 4.0 ESE 6 9 3 5 1022.3 - 0.0
21/12:30am 15.1 14.5 7.2 59 3.9 CALM 0 0 0 0 1022.5 - 0.0
21/12:00am 15.4 13.3 6.8 56 4.2 ESE 7 9 4 5 1022.6 - 0.0
 
Date/Time
EDT
Temp
°C
App
Temp
°C
Dew
Point
Rel
Hum
%
Delta-T
°C
Wind Press
QNH
hPa
Press
MSL
hPa
Rain
since 9 am
mm
Dir
 
Spd
km/h
Gust
km/h
Spd
kts
Gust
kts
20/11:30pm 15.5 12.8 5.7 52 4.7 ESE 9 15 5 8 1022.8 1022.6 0.0
20/11:00pm 15.6 12.6 6.1 53 4.6 S 11 20 6 11 1022.9 - 0.0
20/10:30pm 15.5 12.9 6.2 54 4.5 SSE 9 13 5 7 1023.1 - 0.0
20/10:00pm 15.5 12.1 6.0 53 4.6 SSE 13 19 7 10 1023.1 - 0.0
20/09:30pm 15.8 12.9 6.6 54 4.5 S 11 19 6 10 1022.9 - 0.0
20/09:00pm 15.9 12.9 6.2 52 4.7 SE 11 15 6 8 1022.8 - 0.0
20/08:30pm 16.0 12.3 6.4 53 4.7 SSE 15 22 8 12 1022.7 1022.5 0.0
20/08:00pm 16.1 12.5 8.2 59 4.0 SE 17 28 9 15 1022.3 - 0.0
20/07:30pm 16.1 11.7 8.9 62 3.7 SE 22 33 12 18 1022.2 - 0.0
20/07:00pm 16.0 12.2 5.9 51 4.9 SSW 15 20 8 11 1022.0 - 0.0
20/06:30pm 16.1 12.8 8.2 59 4.0 S 15 20 8 11 1021.8 - 0.0
20/06:00pm 16.2 12.7 8.8 61 3.8 S 17 26 9 14 1021.7 - 0.0
20/05:30pm 16.9 13.5 9.0 59 4.1 S 17 24 9 13 1021.5 1021.3 0.0

Other Formats:

Comma delimited format used in spreadsheet applications
http://www.bom.gov.au/fwo/IDN60801/IDN60801.94996.axf

JavaScript Object Notation format (JSON) in row-major order
http://www.bom.gov.au/fwo/IDN60801/IDN60801.94996.json